Voltar ao catálogo

STARLINK-38149

AtivoComunicaçõesSSO
NORAD 100169·PAYLOAD·🇺🇸 United States

Lançado Jul 25, 2026 de Vandenberg Space Force Base

Loading…

Próximas Passagens (próximas 24 horas)

TLE

AtualizadoSource: Space-Track

Época: Sep 14, 2026, 22:37 UTC

1 A0169U 26171X   26257.94246139  .00014619  00000-0  45405-3 0  9995
2 A0169  97.2836 290.4553 0001041  70.7131 289.4224 15.33459890  9283

Acompanhe STARLINK-38149 em tempo real com AllMySat

Download on the App Store